{"data":{"norad_id":58413,"epoch":"2026-05-24T21:45:19.452096Z","epoch_age_seconds":97274,"freshness":"FRESH","line1":"1 58413U 23180M   26144.90647514  .00002624  00000+0  10486-3 0  9993","line2":"2 58413  43.0041 330.8618 0001363 266.6102  93.4594 15.27568897139410","mean_motion":15.27568897,"eccentricity":0.0001363,"inclination_deg":43.0041,"raan_deg":330.8618,"arg_perigee_deg":266.6102,"mean_anomaly_deg":93.4594,"bstar":0.00010486,"rev_number":13941,"period_min":94.267433883213,"perigee_km":482.14715842091,"apogee_km":484.01752681371,"semimajor_km":6861.2193426173,"source":"CELESTRAK","updated_at":"2026-05-25T13:38:18.618902Z"}}